Location: Street
(51.1247°N, 2.7429°W)
Time: 18:07:19
(UTC+00:00)

N. Korean satellite - Pass Details

Date: 05 November 2020
Orbit: 453 x 503 km, 97.2° (Epoch: 04 December)

Event Time Altitude Azimuth Distance (km) Brightness Sun altitude
Rises 04:34:47 0° 32° (NNE) 2,480 10.7 -24.7°
Reaches altitude 10° 04:38:05 10° 68° (ENE) 1,601 10.1 -24.2°
Maximum altitude 04:39:18 12° 88° (E) 1,511 10.1 -24.0°
Drops below altitude 10° 04:40:31 10° 109° (ESE) 1,600 10.1 -23.8°
Sets 04:43:48 0° 144° (SE) 2,475 10.6 -23.3°
